"Pseudo-MPEC" for C0Y1FQ2

Created 2019 Sep 20 9:07:10 UT using Find_Orb

Click here for an explanation of pseudo-MPECs

 
 Astrometry: 
     C0Y1FQ2  C2019 09 05.36041 00 11 33.56 -00 20 38.1    ~959b 21.2 GVNEOCPG96
     C0Y1FQ2  C2019 09 05.36561 00 11 33.51 -00 20 31.7    ~959b 21.1 GVNEOCPG96
     C0Y1FQ2  C2019 09 05.37079 00 11 33.49 -00 20 26.4    ~959b 21.1 GVNEOCPG96
     C0Y1FQ2  C2019 09 05.37597 00 11 33.45 -00 20 20.7    ~959b 21.3 GVNEOCPG96
     C0Y1FQ2  C2019 09 05.45015 00 11 33.01 -00 19 01.2    ~95B7 21.2 GVNEOCPV06
     C0Y1FQ2  C2019 09 05.45164 00 11 33.02 -00 18 59.8    ~95B7 21.5 GVNEOCPV06
     C0Y1FQ2  C2019 09 05.45313 00 11 33.00 -00 18 58.1    ~95B7 22.6 GVNEOCPV06
     C0Y1FQ2  C2019 09 05.45461 00 11 33.00 -00 18 56.1    ~95B7 22.2 GVNEOCPV06
     C0Y1FQ2 KC2019 09 06-\_FoAstrometry1r@KCw-Ku^K9bredacted;9#aMQ=;click5$RH21
     C0Y1FQ2 KC2019 09 06t$!`v?!bW/B]hereZfor=chV[\YvcdSZZh^239,\nn:#jw8b;0*qH21
     C0Y1FQ2 KC2019 09 06kfQB*oudO=#aY?N62Zr'(f*sB5Y-?*xexplanation`5tj+ITZf1H21
     C0Y1FQ2  C2019 09 06.30139 00 11 35.45 -00 03 45.4    ~967b 21.3 GVNEOCPV06
     C0Y1FQ2  C2019 09 06.30376 00 11 35.44 -00 03 43.0    ~967b 21.1 GVNEOCPV06
     C0Y1FQ2  C2019 09 06.30613 00 11 35.40 -00 03 40.6    ~967b 21.3 GVNEOCPV06
     C0Y1FQ2  C2019 09 06.30851 00 11 35.39 -00 03 37.9    ~967b 21.4 GVNEOCPV06
     C0Y1FQ2  C2019 09 20.33615 00 09 01.95 +04 02 46.2    ~9K8q 21.1 GVNEOCPG96
     C0Y1FQ2  C2019 09 20.34127 00 09 01.78 +04 02 51.3    ~9K8q 21.6 GVNEOCPG96
     C0Y1FQ2  C2019 09 20.34641 00 09 01.59 +04 02 56.0    ~9K8q 21.2 GVNEOCPG96
     C0Y1FQ2  C2019 09 20.35634 00 09 01.40 +04 03 06.0    ~9K8q 21.1 GVNEOCPG96

Station data:
(G96) Mt. Lemmon Survey  (N32.442754 W110.788720)  US/Arizona.  Observers T.
   A. Pruyne, B. M. Africano, E. J. Christensen, G. A. Farneth, D. C. Fuls,
   A. R. Gibbs, A. D. Grauer, H. Groeller, J. A. Johnson, R. A. Kowalski, S.
   M. Larson, G. J. Leonard, D. Rankin, R. L. Seaman, F. C. Shelly. 1.5-m
   reflector + 10K CCD.
(H21) Astronomical Research Observatory, Westfield  (N39.483057 W87.968270)
   US/Illinois. 0.76-m f/3.0 astrograph + CCD.
(V06) Catalina Sky Survey-Kuiper  (N32.416847 W110.732550)  US/Arizona.
   Observers T. A. Pruyne, B. M. Africano, E. J. Christensen, G. A. Farneth,
   D. C. Fuls, A. R. Gibbs, A. D. Grauer, H. Groeller, J. A. Johnson, R. A.
   Kowalski, S. M. Larson, G. J. Leonard, D. Rankin, R. L. Seaman, F. C.
   Shelly. 1.55-m reflector + CCD.

Orbital elements:  C0Y1FQ2
   Perihelion 2019 Sep 17.212038 +/- 0.107 TT =  5:05:20 (JD 2458743.712038)
Epoch 2019 Sep 20.0 TT = JDT 2458746.5   Earth MOID: 0.3385   Ma: 0.0045
M   0.86277869 +/- 0.032            (J2000 ecliptic)          AutoNEOCP
n   0.30946572 +/- 0.00139          Peri.    4.90761 +/- 0.07
a   2.16468319 +/- 0.00646          Node   351.35809 +/- 0.009
e   0.3793923 +/- 0.00136           Incl.    5.69703 +/- 0.017
P   3.18                   H 22.6   G  0.15   U  8.3  
q 1.34341888 +/- 0.00107    Q 2.98594751 +/- 0.012
From 19 observations 2019 Sept. 5-20; mean residual 0".24
Residuals in arcseconds: 
190905 G96  .10+  .45-    190905 V06  .09+  .23+    190906 V06  .12+  .03-    
190905 G96  .15-  .36+    190906 H21  .24-  .10-    190920 G96  .27+  .27+    
190905 G96  .04+  .09+    190906 H21  .20-  .04-    190920 G96  .10-  .22+    
190905 G96  .07-  .22+    190906 H21  .04+  .21+    190920 G96  .76-  .25-    
190905 V06  .10-  .08-    190906 V06  .18+  .13+    190920 G96  .59+  .24-    
190905 V06  .16+  .28-    190906 V06  .31+  .02-    
190905 V06  .02-  .18-    190906 V06  .01-  .17-    

Ephemerides (geocentric):
Date (UTC) HH   RA              Dec         delta   r     elong  mag " sig PA
---- -- -- --  -------------   -----------  ------ ------ -----  --- ---- ---
2019 09 20 09  00 09 01.354   +04 03 37.26  .34145 1.3437 172.6 21.3 .062  27
2019 09 20 10  00 09 00.550   +04 04 19.24  .34145 1.3437 172.6 21.3 .057  21
2019 09 20 11  00 08 59.744   +04 05 01.19  .34145 1.3437 172.7 21.3 .053  13
2019 09 20 12  00 08 58.938   +04 05 43.13  .34145 1.3438 172.7 21.3 .050   4
2019 09 20 13  00 08 58.130   +04 06 25.06  .34146 1.3438 172.7 21.3 .049 175
2019 09 20 14  00 08 57.321   +04 07 06.96  .34146 1.3438 172.8 21.3 .048 165
2019 09 20 15  00 08 56.511   +04 07 48.85  .34146 1.3438 172.8 21.3 .049 155
2019 09 20 16  00 08 55.700   +04 08 30.72  .34146 1.3438 172.8 21.3 .052 146
2019 09 20 17  00 08 54.888   +04 09 12.57  .34147 1.3438 172.9 21.3 .056 138
2019 09 20 18  00 08 54.074   +04 09 54.40  .34147 1.3438 172.9 21.3 .060 131
2019 09 20 19  00 08 53.260   +04 10 36.22  .34147 1.3438 172.9 21.3 .066 125
2019 09 20 20  00 08 52.444   +04 11 18.01  .34148 1.3438 172.9 21.3 .072 120
2019 09 20 21  00 08 51.628   +04 11 59.79  .34148 1.3438 173.0 21.3 .078 116
2019 09 20 22  00 08 50.810   +04 12 41.55  .34149 1.3438 173.0 21.3 .085 112
2019 09 20 23  00 08 49.991   +04 13 23.30  .34149 1.3439 173.0 21.3 .092 109
2019 09 21 00  00 08 49.171   +04 14 05.02  .34150 1.3439 173.1 21.3 .100 106
2019 09 21 01  00 08 48.350   +04 14 46.73  .34150 1.3439 173.1 21.3 .108 104
2019 09 21 02  00 08 47.528   +04 15 28.42  .34151 1.3439 173.1 21.3 .115 102
2019 09 21 03  00 08 46.705   +04 16 10.09  .34151 1.3439 173.2 21.3 .123 100
2019 09 21 04  00 08 45.881   +04 16 51.74  .34152 1.3439 173.2 21.3 .132  99
2019 09 21 05  00 08 45.056   +04 17 33.38  .34152 1.3439 173.2 21.3 .140  97
2019 09 21 06  00 08 44.230   +04 18 14.99  .34153 1.3439 173.2 21.3 .148  96
2019 09 21 07  00 08 43.403   +04 18 56.59  .34154 1.3439 173.3 21.3 .157  95
2019 09 21 08  00 08 42.575   +04 19 38.17  .34154 1.3439 173.3 21.3 .165  94
2019 09 21 09  00 08 41.746   +04 20 19.73  .34155 1.3440 173.3 21.3 .174  93
2019 09 21 10  00 08 40.916   +04 21 01.27  .34156 1.3440 173.4 21.3 .182  92
2019 09 21 11  00 08 40.085   +04 21 42.79  .34156 1.3440 173.4 21.3 .191  92
2019 09 21 12  00 08 39.253   +04 22 24.30  .34157 1.3440 173.4 21.3 .200  91
2019 09 21 13  00 08 38.420   +04 23 05.78  .34158 1.3440 173.5 21.3 .208  90
2019 09 21 14  00 08 37.586   +04 23 47.25  .34159 1.3440 173.5 21.3 .217  90
2019 09 21 15  00 08 36.752   +04 24 28.70  .34160 1.3440 173.5 21.3 .226  89
2019 09 21 16  00 08 35.916   +04 25 10.13  .34160 1.3440 173.5 21.3 .235  89
2019 09 21 17  00 08 35.080   +04 25 51.54  .34161 1.3440 173.6 21.3 .244  88
2019 09 21 18  00 08 34.242   +04 26 32.93  .34162 1.3441 173.6 21.3 .253  88
2019 09 21 19  00 08 33.404   +04 27 14.30  .34163 1.3441 173.6 21.3 .262  87
2019 09 21 20  00 08 32.565   +04 27 55.65  .34164 1.3441 173.6 21.3 .271  87
2019 09 21 21  00 08 31.725   +04 28 36.99  .34165 1.3441 173.7 21.3 .280  87
2019 09 21 22  00 08 30.884   +04 29 18.30  .34166 1.3441 173.7 21.3 .289  86
2019 09 21 23  00 08 30.042   +04 29 59.60  .34167 1.3441 173.7 21.3 .298  86
2019 09 22 00  00 08 29.200   +04 30 40.88  .34168 1.3441 173.8 21.3 .308  86
2019 09 22 01  00 08 28.356   +04 31 22.13  .34169 1.3441 173.8 21.3 .317  85
2019 09 22 02  00 08 27.512   +04 32 03.37  .34170 1.3442 173.8 21.3 .326  85
2019 09 22 03  00 08 26.667   +04 32 44.59  .34171 1.3442 173.8 21.3 .335  85
2019 09 22 04  00 08 25.821   +04 33 25.79  .34173 1.3442 173.9 21.3 .345  84
2019 09 22 05  00 08 24.975   +04 34 06.97  .34174 1.3442 173.9 21.3 .354  84
2019 09 22 06  00 08 24.127   +04 34 48.13  .34175 1.3442 173.9 21.3 .364  84
2019 09 22 07  00 08 23.279   +04 35 29.27  .34176 1.3442 173.9 21.3 .373  84
2019 09 22 08  00 08 22.430   +04 36 10.39  .34177 1.3442 174.0 21.3 .382  83